This is the latest recevied weather packets stored in our database for station/object W4FXD. If no packets are shown the sender has not sent any weather packets the latest 10 day(s).
| Time | Temp. | Humidity | Pressure | Rain* | Wind** | Luminosity | Snow |
|---|---|---|---|---|---|---|---|
| 1777796914 | 6.67° C | 84% | 1019.7 hPa | 0 mm | - | 0 W/m² | - |
| 1777796611 | 6.67° C | 84% | 1019.8 hPa | 0 mm | - | 0 W/m² | - |
| 1777796307 | 6.67° C | 84% | 1019.8 hPa | 0 mm | - | 0 W/m² | - |
| 1777796003 | 6.67° C | 84% | 1019.7 hPa | 0 mm | - | 0 W/m² | - |
| 1777795700 | 6.67° C | 83% | 1019.6 hPa | 0 mm | - | 0 W/m² | - |
| 1777795397 | 7.22° C | 82% | 1019.8 hPa | 0 mm | - | 0 W/m² | - |
| 1777795093 | 7.22° C | 82% | 1019.6 hPa | 0 mm | - | 0 W/m² | - |
| 1777794789 | 7.22° C | 80% | 1019.3 hPa | 0 mm | - | 0 W/m² | - |
| 1777794486 | 7.22° C | 80% | 1019.5 hPa | 0 mm | - | 0 W/m² | - |
| 1777794181 | 7.22° C | 79% | 1019.4 hPa | 0 mm | - | 0 W/m² | - |
| 1777793877 | 7.22° C | 81% | 1019.3 hPa | 0 mm | - | 0 W/m² | - |
| 1777793575 | 7.22° C | 81% | 1019.3 hPa | 0 mm | - | 0 W/m² | - |
| 1777793273 | 7.78° C | 79% | 1019.1 hPa | 0 mm | - | 0 W/m² | - |
| 1777792970 | 7.78° C | 78% | 1019.1 hPa | 0 mm | - | 0 W/m² | - |
| 1777792666 | 8.33° C | 77% | 1019 hPa | 0 mm | - | 0 W/m² | - |
| 1777792364 | 8.33° C | 75% | 1018.9 hPa | 0 mm | - | 0 W/m² | - |
| 1777792060 | 8.33° C | 75% | 1019 hPa | 0 mm | - | 0 W/m² | - |
| 1777791758 | 8.33° C | 74% | 1019.2 hPa | 0 mm | - | 0 W/m² | - |
| 1777791456 | 8.33° C | 75% | 1019.1 hPa | 0 mm | - | 0 W/m² | - |
| 1777791153 | 8.33° C | 77% | 1019.2 hPa | 0 mm | - | 0 W/m² | - |
| 1777790850 | 8.33° C | 74% | 1019.1 hPa | 0 mm | - | 0 W/m² | - |
| 1777790548 | 8.33° C | 76% | 1019.1 hPa | 0 mm | - | 0 W/m² | - |
| 1777790244 | 7.78° C | 76% | 1019.2 hPa | 0 mm | - | 0 W/m² | - |
| 1777789943 | 8.33° C | 77% | 1018.9 hPa | 0 mm | - | 0 W/m² | - |
| 1777789640 | 8.33° C | 77% | 1018.6 hPa | 0 mm | - | 0 W/m² | - |
* Rain latest hour (hover to see other rain measurements)
** Current wind speed in m/s (hover to see current wind gust speed)